Regional Weather Roundup
Issued by NWS Midland/Odessa, TX

Skip options and go directly to product.
Home | Oldest Version | Previous Version | Current Version | All | Text Only | Save Text | Print | Product List | Glossary Off

Skip product version selection by date and time.   

987
ASUS44 KMAF 272010
RWRMAF
MIDLAND AREA WEATHER ROUNDUP
NATIONAL WEATHER SERVICE MIDLAND TX
300 PM CDT FRI MAR 27 2015

...IN SOUTHWEST TEXAS AND SOUTHEAST NEW MEXICO...

CITY           SKY/WX    TMP DP  RH WIND       PRES   REMARKS
ALPINE         SUNNY     73  26  17 SW15G24   30.30F
ANDREWS        FAIR      76  28  17 SW9G20    30.16F
ARTESIA        SUNNY     77  21  12 VRB6      30.15F
BIG SPRING     SUNNY     81  28  14 SW17      30.17F
CARLSBAD       SUNNY     77  31  18 SE6       30.14F
DRYDEN           N/A     79  29  16 SW15      30.16F
FORT STOCKTON  SUNNY     80  25  13 SW7G25    30.17F
GUAD PASS      SUNNY     70  27  20 W24G35    30.27F
HOBBS          SUNNY     75  23  14 W12       30.17F
MARFA          SUNNY     72  27  18 SW9G21    30.29F
MIDLAND AIRPK  SUNNY     77  29  17 SW12G22   30.17F
MIDLAND INTL   SUNNY     76  29  17 SW13G21   30.16F
ODESSA         SUNNY     76  25  15 W14G23    30.17F
PECOS          SUNNY     80  30  16 W13       30.14F
PRESIDIO       FAIR      74  31  20 S6        30.20F
SEMINOLE       SUNNY     77  27  15 W13       30.15F
SNYDER         SUNNY     73  32  22 E8        30.16F
WINK           SUNNY     78  30  17 SW8       30.13F
$$
...OTHER STATIONS IN TEXAS...

CITY           SKY/WX    TMP DP  RH WIND       PRES   REMARKS
ABILENE        SUNNY     74  35  24 CALM      30.17F
AMARILLO       SUNNY     68  26  20 SE13      30.17F
AUSTIN         SUNNY     78  38  23 N13       30.13F
BROWNSVILLE    MOSUNNY   78  39  24 VRB3      30.18F
CORPUS CHRISTI MOSUNNY   76  44  32 W9        30.17F
DALLAS FTW     MOSUNNY   68  40  35 NE10G20   30.16F
DEL RIO        SUNNY     79  35  20 CALM      30.15F
EL PASO        SUNNY     76  24  14 CALM      30.22F
HOUSTON INT    SUNNY     77  36  22 NW13G22   30.10F
LUBBOCK        PTSUNNY   75  27  17 S12       30.15F
SAN ANGELO     SUNNY     77  29  17 S9        30.16F
SAN ANTONIO    SUNNY     77  35  21 SW14      30.16F
WACO           SUNNY     73  42  32 N12       30.14F
WICHITA FALLS  NOT AVBL
$$
...OTHER LOCATIONS IN NEW MEXICO...

CITY           SKY/WX    TMP DP  RH WIND       PRES   REMARKS
ALAMAGORDO     MOSUNNY   72  21  15 CALM      30.23F
ALBUQUERQUE    SUNNY     71  21  15 W10G18    30.24F
CANNON AFB     NOT AVBL
CLOVIS         SUNNY     72  27  18 NE7       30.17F
HOLLOMAN AFB   MOSUNNY   73  16  11 W8        30.21F
ROSWELL        SUNNY     77  27  15 MISG      30.15F
RUIDOSO        SUNNY     64  16  15 N17       30.31F
SANTA FE       SUNNY     66  17  15 W13G21    30.25F
TRUTH OR CONSE SUNNY     72  17  12 CALM      30.23F
TUCUMCARI      SUNNY     72  22  15 E9        30.15F
$$

USA.gov is the U.S. government's official web portal to all federal, state and local government web resources and services.